When you browse on this site, cookies collect data to enhance your experience and personalize the content and advertising you see.
Visit our Privacy Policy to learn more. By continuing to use the site, you agree to this use of cookies and data.
  • In Hungary
  • List of Countries
  • For 7 days
  • Water Temperature
  • Weather Map
  • News
  • Weather Widgets
  • user-avatar
    Login

    Hourly Weather Peno

    Today, 20 January, Monday

    Time Temperature Precipitation Wind Pressure Humidity
    00:00 0°C° 0 mm 4 mps 750 mmHg 89%
    01:00 -1°C° 0 mm 5 mps 750 mmHg 90%
    02:00 -1°C° 0 mm 5 mps 750 mmHg 90%
    03:00 -1°C° 0 mm 5 mps 750 mmHg 90%
    04:00 -1°C° 0 mm 5 mps 750 mmHg 89%
    05:00 -1°C° 0 mm 4 mps 750 mmHg 89%
    06:00 -1°C° 0 mm 4 mps 750 mmHg 89%
    07:00 -1°C° 0 mm 4 mps 750 mmHg 89%
    08:00 -1°C° 0 mm 4 mps 750 mmHg 89%
    09:00 -1°C° 0 mm 4 mps 750 mmHg 90%
    10:00 -1°C° 0 mm 5 mps 750 mmHg 92%
    11:00 -1°C° 0 mm 5 mps 750 mmHg 93%
    12:00 -1°C° 0 mm 5 mps 750 mmHg 91%
    13:00 -1°C° 0 mm 5 mps 750 mmHg 89%
    14:00 0°C° 0 mm 5 mps 751 mmHg 87%
    15:00 -1°C° 0 mm 5 mps 750 mmHg 85%
    16:00 -1°C° 0 mm 5 mps 750 mmHg 84%
    17:00 -1°C° 0 mm 5 mps 749 mmHg 83%
    18:00 -1°C° 0 mm 5 mps 749 mmHg 82%
    19:00 -1°C° 0 mm 5 mps 748 mmHg 81%
    20:00 -2°C° 0 mm 5 mps 748 mmHg 79%
    21:00 -2°C° 0 mm 5 mps 747 mmHg 78%
    22:00 -2°C° 0 mm 5 mps 747 mmHg 77%
    23:00 -3°C° 0 mm 6 mps 746 mmHg 76%

    Tomorrow, 21 January, Tuesday

    Time Temperature Precipitation Wind Pressure Humidity
    00:00 -2°C° 0 mm 6 mps 745 mmHg 78%
    01:00 -1°C° 0 mm 5 mps 745 mmHg 81%
    02:00 -1°C° 0 mm 5 mps 744 mmHg 83%
    03:00 -1°C° 0 mm 5 mps 743 mmHg 86%
    04:00 -2°C° 0 mm 6 mps 742 mmHg 88%
    05:00 -2°C° 0 mm 6 mps 741 mmHg 90%
    06:00 -1°C° 0.1 mm 6 mps 741 mmHg 90%
    07:00 -1°C° 0.1 mm 6 mps 740 mmHg 90%
    08:00 +1°C° 0.1 mm 6 mps 740 mmHg 91%
    09:00 +2°C° 0 mm 6 mps 739 mmHg 91%
    10:00 +2°C° 0 mm 6 mps 739 mmHg 91%
    11:00 +2°C° 0 mm 6 mps 738 mmHg 91%
    12:00 +3°C° 0 mm 5 mps 738 mmHg 91%
    13:00 +3°C° 0 mm 5 mps 737 mmHg 92%
    14:00 +3°C° 0 mm 5 mps 737 mmHg 92%
    15:00 +3°C° 0.5 mm 6 mps 736 mmHg 91%
    16:00 +3°C° 0.5 mm 6 mps 735 mmHg 90%
    17:00 +4°C° 0.5 mm 7 mps 734 mmHg 89%
    18:00 +3°C° 1.1 mm 6 mps 734 mmHg 89%
    19:00 +3°C° 1.1 mm 6 mps 734 mmHg 88%
    20:00 +3°C° 1.1 mm 5 mps 734 mmHg 88%
    21:00 +2°C° 0.1 mm 6 mps 735 mmHg 84%
    22:00 +1°C° 0.1 mm 6 mps 735 mmHg 79%
    23:00 -1°C° 0.1 mm 6 mps 735 mmHg 75%

    Day after tomorrow, 22 January, Wednesday

    Time Temperature Precipitation Wind Pressure Humidity
    00:00 -2°C° 0 mm 6 mps 735 mmHg 75%
    01:00 -2°C° 0 mm 6 mps 735 mmHg 75%
    02:00 -2°C° 0 mm 5 mps 735 mmHg 75%
    03:00 -2°C° 0 mm 5 mps 735 mmHg 75%
    04:00 -2°C° 0 mm 5 mps 734 mmHg 75%
    05:00 -2°C° 0 mm 5 mps 734 mmHg 75%
    06:00 -2°C° 0.1 mm 5 mps 733 mmHg 78%
    07:00 -3°C° 0.1 mm 6 mps 733 mmHg 81%
    08:00 -3°C° 0.1 mm 6 mps 732 mmHg 84%
    09:00 -3°C° 0.1 mm 6 mps 732 mmHg 80%
    10:00 -3°C° 0.1 mm 6 mps 732 mmHg 77%
    11:00 -3°C° 0.1 mm 6 mps 731 mmHg 74%
    12:00 -2°C° 0.5 mm 5 mps 731 mmHg 74%
    13:00 -2°C° 0.5 mm 5 mps 731 mmHg 74%
    14:00 -2°C° 0.5 mm 5 mps 731 mmHg 74%
    15:00 -4°C° 0 mm 5 mps 731 mmHg 75%
    16:00 -4°C° 0 mm 5 mps 731 mmHg 76%
    17:00 -5°C° 0 mm 5 mps 732 mmHg 78%
    18:00 -5°C° 0.1 mm 5 mps 732 mmHg 81%
    19:00 -5°C° 0.1 mm 5 mps 732 mmHg 85%
    20:00 -5°C° 0.1 mm 5 mps 733 mmHg 88%
    21:00 -5°C° 0.1 mm 5 mps 733 mmHg 86%
    22:00 -5°C° 0.1 mm 5 mps 734 mmHg 84%
    23:00 -5°C° 0.1 mm 5 mps 734 mmHg 82%

    23 January, Thursday

    Time Temperature Precipitation Wind Pressure Humidity
    00:00 -6°C° 0.1 mm 5 mps 735 mmHg 79%
    01:00 -6°C° 0.1 mm 5 mps 736 mmHg 75%
    02:00 -6°C° 0.1 mm 6 mps 736 mmHg 71%
    03:00 -8°C° 0 mm 6 mps 737 mmHg 68%
    04:00 -8°C° 0 mm 6 mps 737 mmHg 64%
    05:00 -9°C° 0 mm 6 mps 738 mmHg 61%
    06:00 -9°C° 0 mm 6 mps 738 mmHg 59%
    07:00 -8°C° 0 mm 5 mps 739 mmHg 57%
    08:00 -8°C° 0 mm 5 mps 739 mmHg 55%
    09:00 -8°C° 0 mm 6 mps 739 mmHg 58%
    10:00 -8°C° 0 mm 6 mps 740 mmHg 61%
    11:00 -7°C° 0 mm 7 mps 740 mmHg 65%
    12:00 -6°C° 0 mm 6 mps 740 mmHg 64%
    13:00 -6°C° 0 mm 6 mps 741 mmHg 63%
    14:00 -6°C° 0 mm 6 mps 741 mmHg 62%
    15:00 -6°C° 0 mm 5 mps 741 mmHg 63%
    16:00 -5°C° 0 mm 4 mps 741 mmHg 64%
    17:00 -6°C° 0 mm 3 mps 742 mmHg 66%
    18:00 -6°C° 0 mm 3 mps 742 mmHg 68%
    19:00 -6°C° 0 mm 3 mps 742 mmHg 71%
    20:00 -6°C° 0 mm 3 mps 742 mmHg 74%
    21:00 -6°C° 0 mm 3 mps 742 mmHg 74%
    22:00 -6°C° 0 mm 3 mps 741 mmHg 73%
    23:00 -5°C° 0 mm 3 mps 741 mmHg 73%

    24 January, Friday

    Time Temperature Precipitation Wind Pressure Humidity
    00:00 -5°C° 0.2 mm 3 mps 740 mmHg 80%
    01:00 -5°C° 0.2 mm 4 mps 739 mmHg 86%
    02:00 -5°C° 0.2 mm 4 mps 738 mmHg 93%
    03:00 -5°C° 0.7 mm 5 mps 737 mmHg 93%
    04:00 -5°C° 0.7 mm 5 mps 736 mmHg 93%
    05:00 -5°C° 0.7 mm 6 mps 734 mmHg 93%
    06:00 -2°C° 0.9 mm 5 mps 734 mmHg 94%
    07:00 -1°C° 0.9 mm 5 mps 733 mmHg 94%
    08:00 +1°C° 0.9 mm 5 mps 732 mmHg 95%
    09:00 +1°C° 0.1 mm 5 mps 732 mmHg 93%
    10:00 +1°C° 0.1 mm 5 mps 732 mmHg 92%
    11:00 +2°C° 0.1 mm 6 mps 732 mmHg 90%
    12:00 +1°C° 0 mm 6 mps 733 mmHg 84%
    13:00 +1°C° 0 mm 6 mps 733 mmHg 78%
    14:00 +1°C° 0 mm 6 mps 733 mmHg 73%
    15:00 -1°C° 0 mm 6 mps 734 mmHg 72%
    16:00 -1°C° 0 mm 5 mps 735 mmHg 71%
    17:00 -2°C° 0 mm 5 mps 735 mmHg 71%
    18:00 -3°C° 0 mm 4 mps 735 mmHg 72%
    19:00 -3°C° 0 mm 4 mps 735 mmHg 73%
    20:00 -3°C° 0 mm 4 mps 736 mmHg 74%
    21:00 -3°C° 0 mm 4 mps 736 mmHg 76%
    22:00 -2°C° 0 mm 3 mps 736 mmHg 78%
    23:00 -2°C° 0 mm 3 mps 736 mmHg 79%

    25 January, Saturday

    Time Temperature Precipitation Wind Pressure Humidity
    00:00 -2°C° 0 mm 3 mps 736 mmHg 83%
    01:00 -3°C° 0 mm 2 mps 736 mmHg 87%
    02:00 -3°C° 0 mm 2 mps 736 mmHg 91%
    03:00 -2°C° 0 mm 2 mps 736 mmHg 93%
    04:00 -2°C° 0 mm 2 mps 736 mmHg 95%
    05:00 -2°C° 0 mm 2 mps 736 mmHg 97%
    06:00 -1°C° 0 mm 2 mps 736 mmHg 97%
    07:00 +1°C° 0 mm 2 mps 736 mmHg 97%
    08:00 +2°C° 0 mm 2 mps 736 mmHg 97%
    09:00 +2°C° 0 mm 2 mps 737 mmHg 96%
    10:00 +1°C° 0 mm 3 mps 737 mmHg 95%
    11:00 +1°C° 0 mm 3 mps 737 mmHg 95%
    12:00 +1°C° 0 mm 3 mps 737 mmHg 93%
    13:00 +1°C° 0 mm 3 mps 737 mmHg 92%
    14:00 +2°C° 0 mm 3 mps 736 mmHg 91%
    15:00 +2°C° 0 mm 3 mps 736 mmHg 93%
    16:00 +2°C° 0 mm 3 mps 736 mmHg 94%
    17:00 +2°C° 0 mm 3 mps 736 mmHg 95%
    18:00 +2°C° 0.1 mm 3 mps 737 mmHg 96%
    19:00 +2°C° 0.1 mm 3 mps 737 mmHg 96%
    20:00 +1°C° 0.1 mm 3 mps 737 mmHg 96%
    21:00 +2°C° 0.1 mm 3 mps 737 mmHg 96%
    22:00 +2°C° 0.1 mm 3 mps 737 mmHg 96%
    23:00 +2°C° 0.1 mm 3 mps 737 mmHg 96%
    Show more